This demonstration page uses our WeatherBlox Daily Observations layout. Learn more.

36.17497, -115.13722

Hourly Observations for September 1, 2019

Temp ( °F °C ) Dew Point ( °F °C ) Humidity (%) Winds ( mph kmh ) Pressure ( in mb ) Visibility ( mi km ) Precip ( " mm )
12:53 am 00:53 Clear 81 27.2 25 -3.9 13 13 NW 9 15 29.83 1010 10 16.09344 0 0
1:53 am 01:53 Clear 79 26.1 26 -3.3 14 14 NW 7 11 29.83 1010 10 16.09344 0 0
2:53 am 02:53 Clear 80 26.7 28 -2.2 15 15 VRB 5 7 29.83 1010 10 16.09344 0 0
3:53 am 03:53 Clear 77 25 27 -2.8 16 16 Calm 29.83 1010 10 16.09344 0 0
4:53 am 04:53 Clear 77 25 27 -2.8 16 16 WNW 3 6 29.83 1010 10 16.09344 0 0
5:53 am 05:53 Clear 78 25.6 26 -3.3 15 15 WNW 6 9 29.85 1011 10 16.09344 0 0
6:53 am 06:53 Sunny 77 25 27 -2.8 16 16 WNW 8 13 29.88 1012 10 16.09344 0 0
7:53 am 07:53 Sunny 83 28.3 25 -3.9 12 12 NW 5 7 29.91 1013 10 16.09344 0 0
8:53 am 08:53 Sunny 89 31.7 23 -5 9 9 NNE 3 6 29.91 1013 10 16.09344 0 0
9:53 am 09:53 Sunny 91 32.8 20 -6.7 7 7 ESE 5 7 29.91 1013 10 16.09344 0 0
10:53 am 10:53 Sunny 96 35.6 21 -6.1 6 6 ESE 7 11 29.91 1013 10 16.09344 0 0
11:53 am 11:53 Sunny 99 37.2 22 -5.6 6 6 VRB 7 11 29.88 1012 10 16.09344 0 0
12:53 pm 12:53 Sunny 103 39.4 32 0 8 8 SSE 9 15 29.88 1012 10 16.09344 0 0
1:53 pm 13:53 Sunny 105 40.6 35 1.7 9 9 E 12 19 29.85 1011 10 16.09344 0 0
2:53 pm 14:53 Sunny 105 40.6 37 2.8 10 10 ESE 9 15 29.83 1010 10 16.09344 0 0
3:53 pm 15:53 Sunny 108 42.2 40 4.4 10 10 SE 16 26 29.8 1009 10 16.09344 0 0
4:53 pm 16:53 Sunny 107 41.7 40 4.4 10 10 ESE 9 15 29.77 1008 10 16.09344 0 0
5:53 pm 17:53 Sunny 107 41.7 36 2.2 9 9 W 3 6 29.77 1008 10 16.09344 0 0
6:53 pm 18:53 Sunny 104 40 46 7.8 14 14 ESE 6 9 29.77 1008 10 16.09344 0 0
7:53 pm 19:53 Clear 103 39.4 35 1.7 9 9 WSW 9 15 29.77 1008 10 16.09344 0 0
8:53 pm 20:53 Clear 101 38.3 35 1.7 10 10 W 5 7 29.8 1009 10 16.09344 0 0
9:53 pm 21:53 Clear 100 37.8 34 1.1 10 10 Calm 29.8 1009 10 16.09344 0 0
10:53 pm 22:53 Clear 99 37.2 35 1.7 11 11 SSW 8 13 29.83 1010 10 16.09344 0 0
11:53 pm 23:53 Clear 97 36.1 41 5 14 14 S 12 19 29.85 1011 10 16.09344 0 0

Powered by AerisWeather